Goldsboro, NC

4:44 PM EST on December 16, 2017 (GMT -0500)
Seymour Johnson Air Force Base

Weather History for KGSB - December, 2011

Change the Weather History Date:

Tuesday, December 20, 2011

  Actual Average Record
Temperature  
Mean Temperature 56 °F -  
Max Temperature 67 °F 51 °F 70 °F (2008)
Min Temperature 45 °F 33 °F 15 °F (2004)
Degree Days  
Heating Degree Days 9    
Growing Degree Days 6 (Base 50)    
Moisture  
Dew Point 49 °F    
Average Humidity 77    
Maximum Humidity 99    
Minimum Humidity 53    
Precipitation  
Precipitation 0.00 in - - ()
Sea Level Pressure  
Sea Level Pressure 30.18 in    
Wind  
Wind Speed 7 mph (SW)    
Max Wind Speed 15 mph    
Max Gust Speed 20 mph    
Visibility 10 miles    
Events      
Averages and records for this station are not official NWS values.
T = Trace of Precipitation, MM = Missing Value Source: NWS Daily Summary

Daily Weather History Graph

Daily Weather History Graph

Search for Another Location

Airport or City:

Trip Planner

Search our weather history database for the weather conditions in past years. The results will help you decide how hot, cold, wet, or windy it might be!

Date:

Astronomy

Dec. 20, 2011 Rise Set
Actual Time 7:16 AM EST 5:02 PM EST
Civil Twilight 6:47 AM EST 5:30 PM EST
Nautical Twilight 6:16 AM EST 6:02 PM EST
Astronomical Twilight 5:44 AM EST 6:33 PM EST
Moon 2:40 AM EST (12/20) 1:33 PM EST (12/20)
Length of Visible Light 10h 43m
Length of Day
9h 46m
Waning Crescent, 21% of the Moon is Illuminated
Dec 20
Waning Crescent
Dec 24
New
Jan 1
First Quarter
Jan 9
Full
Jan 16
Last Quarter

Hourly Weather History & Observations

Time (EST) Temp. Windchill Dew Point Humidity Pressure Visibility Wind Dir Wind Speed Gust Speed Precip Events Conditions
12:55 AM 50.0 °F - 44.8 °F 82% 30.20 in 10.0 mi SW 8.1 mph - N/A   Partly Cloudy
1:55 AM 47.1 °F - 45.1 °F 93% 30.19 in 10.0 mi WSW 6.9 mph - N/A   Clear
2:55 AM 46.6 °F - 45.9 °F 97% 30.20 in 10.0 mi WSW 6.9 mph - N/A   Clear
3:55 AM 46.6 °F - 46.4 °F 99% 30.19 in 10.0 mi WSW 6.9 mph - N/A   Clear
4:55 AM 45.0 °F 41.2 °F 44.8 °F 99% 30.18 in 10.0 mi WSW 6.9 mph - N/A   Clear
5:55 AM 45.9 °F 43.6 °F 45.7 °F 99% 30.20 in 10.0 mi West 4.6 mph - N/A   Clear
6:55 AM 46.2 °F 44.1 °F 46.0 °F 99% 30.21 in 10.0 mi West 4.6 mph - N/A   Clear
7:55 AM 47.5 °F - 47.3 °F 99% 30.22 in 10.0 mi SW 3.5 mph - N/A   Clear
8:55 AM 53.6 °F - 52.3 °F 95% 30.23 in 10.0 mi WSW 5.8 mph - N/A   Clear
9:55 AM 58.6 °F - 50.9 °F 75% 30.24 in 10.0 mi WSW 9.2 mph - N/A   Clear
10:55 AM 64.9 °F - 50.5 °F 60% 30.23 in 10.0 mi WSW 15.0 mph - N/A   Clear
11:55 AM 66.0 °F - 50.2 °F 57% 30.20 in 10.0 mi West 12.7 mph - N/A   Overcast
12:55 PM 67.3 °F - 49.8 °F 53% 30.17 in 10.0 mi WSW 13.8 mph 19.6 mph N/A   Mostly Cloudy
1:55 PM 66.9 °F - 49.6 °F 54% 30.15 in 10.0 mi WSW 13.8 mph - N/A   Overcast
2:55 PM 66.4 °F - 49.5 °F 54% 30.14 in 10.0 mi WSW 11.5 mph - N/A   Overcast
3:55 PM 66.0 °F - 49.6 °F 55% 30.14 in 10.0 mi SW 6.9 mph - N/A   Overcast
4:55 PM 64.4 °F - 50.4 °F 60% 30.15 in 10.0 mi SW 4.6 mph - N/A   Overcast
5:55 PM 62.1 °F - 51.4 °F 68% 30.15 in 10.0 mi South 3.5 mph - N/A   Overcast
6:55 PM 61.5 °F - 51.4 °F 69% 30.17 in 10.0 mi Calm Calm - N/A   Overcast
7:55 PM 60.3 °F - 52.2 °F 75% 30.18 in 10.0 mi Calm Calm - N/A   Overcast
8:55 PM 60.3 °F - 52.0 °F 74% 30.18 in 7.0 mi South 3.5 mph - N/A   Overcast
9:55 PM 60.3 °F - 51.4 °F 73% 30.17 in 10.0 mi South 5.8 mph - N/A   Overcast
10:55 PM 60.4 °F - 52.0 °F 74% 30.17 in 10.0 mi South 8.1 mph - N/A   Scattered Clouds
11:55 PM 59.5 °F - 52.7 °F 78% 30.16 in 10.0 mi South 5.8 mph - N/A   Overcast